Watrous East, Saskatchewan

12:45 PM CST on July 26, 2017 (GMT -0600)
Watrous East

Weather History for CWIW - June, 2012

Change the Weather History Date:

Saturday, June 2, 2012

  Actual Average Record
Temperature  
Mean Temperature 64 °F -  
Max Temperature 81 °F - - ()
Min Temperature 48 °F - - ()
Growing Degree Days 14 (Base 50)    
Moisture  
Dew Point 45 °F    
Average Humidity 50    
Maximum Humidity 85    
Minimum Humidity 17    
Precipitation  
Precipitation 0.00 in - - ()
Sea Level Pressure  
Sea Level Pressure 29.61 in    
Wind  
Wind Speed 8 mph ()    
Max Wind Speed 21 mph    
Max Gust Speed 28 mph    
T = Trace of Precipitation, MM = Missing Value Source: Averaged Metar Reports

Daily Weather History Graph

Daily Weather History Graph

Search for Another Location

Airport or City:

Trip Planner

Search our weather history database for the weather conditions in past years. The results will help you decide how hot, cold, wet, or windy it might be!

Date:

Astronomy

Jun. 02, 2012 Rise Set
Actual Time 4:48 AM CST 9:11 PM CST
Civil Twilight 4:01 AM CST 9:58 PM CST
Nautical Twilight 2:53 AM CST 11:07 PM CST
Astronomical Twilight 1:32 AM CST 12:27 AM CST
Moon 7:23 PM CST (6/2) 3:20 AM CST (6/2)
Length of Visible Light 17h 56m
Length of Day
16h 23m
Waxing Gibbous, 96% of the Moon is Illuminated
Jun 2
Waxing Gibbous
Jun 4
Full
Jun 11
Last Quarter
Jun 19
New
Jun 26
First Quarter

Hourly Weather History & Observations

Time (CST) Temp. Dew Point Humidity Pressure Visibility Wind Dir Wind Speed Gust Speed Precip Events Conditions
12:00 AM 52 °F 40 °F 53% 29.73 in - SW 5.8 mph - -  
12:00 AM 51.6 °F 39.9 °F 64% 29.73 in - SW 5.8 mph - N/A   Unknown
1:00 AM 50.5 °F 40.5 °F 68% 29.72 in - SW 5.8 mph - N/A   Unknown
2:00 AM 48.9 °F 41.0 °F 74% 29.72 in - SE 4.6 mph - N/A   Unknown
3:00 AM 52.3 °F 43.7 °F 72% 29.71 in - South 5.8 mph - N/A   Unknown
4:00 AM 51.3 °F 44.2 °F 77% 29.70 in - South 8.1 mph - N/A   Unknown
5:00 AM 51.4 °F 45.0 °F 79% 29.69 in - SSE 5.8 mph - N/A   Unknown
6:00 AM 54 °F 47 °F 70% 29.68 in - SSE 5.8 mph - -  
6:00 AM 54.1 °F 46.9 °F 77% 29.68 in - SSE 5.8 mph - N/A   Unknown
8:00 AM 64.9 °F 48.6 °F 55% 29.66 in - SSE 8.1 mph - N/A   Unknown
9:00 AM 69.1 °F 43.9 °F 40% 29.65 in - SSE 20.7 mph 27.6 mph N/A   Unknown
10:00 AM 70.2 °F 45.3 °F 41% 29.63 in - SSE 16.1 mph - N/A   Unknown
11:00 AM 74.1 °F 48.6 °F 40% 29.61 in - South 12.7 mph 19.6 mph N/A   Unknown
12:00 PM 76 °F 48 °F 27% 29.60 in - SSW 10.4 mph - -  
12:00 PM 75.6 °F 48.4 °F 38% 29.60 in - SSW 10.4 mph 18.4 mph N/A   Unknown
1:00 PM 79.5 °F 46.9 °F 32% 29.59 in - SSW 12.7 mph 18.4 mph N/A   Unknown
2:00 PM 81.1 °F 43.9 °F 27% 29.56 in - SSW 11.5 mph 18.4 mph N/A   Unknown
3:00 PM 80.8 °F 40.5 °F 24% 29.55 in - SSW 9.2 mph - N/A   Unknown
4:00 PM 81.9 °F 41.5 °F 24% 29.53 in - SSW 12.7 mph 19.6 mph N/A   Unknown
6:00 PM 78 °F 41 °F 17% 29.51 in - SW 11.5 mph - -  
6:00 PM 78.3 °F 41.0 °F 26% 29.51 in - SW 11.5 mph - N/A   Unknown
7:00 PM 76.6 °F 45.7 °F 33% 29.49 in - SW 11.5 mph - N/A   Unknown
8:00 PM 70.2 °F 53.1 °F 55% 29.50 in - SSW 16.1 mph - N/A   Unknown
9:00 PM 67.5 °F 52.3 °F 58% 29.50 in - South 13.8 mph - N/A   Unknown
11:00 PM 61.0 °F 56.3 °F 85% 29.52 in - NNW 9.2 mph - N/A   Unknown